Time,TemperatureF,DewpointF,PressureIn,WindDirection,WindDirectionDegrees,WindSpeedMPH,WindSpeedGustMPH,Humidity,HourlyPrecipIn,Conditions,Clouds,dailyrainin,SoftwareType,DateUTC
2013-06-22 00:01:00,66.7,59.3,30.10,East,86,0.0,0.0,77,0.00,,---,0.00,VWS V14.01,2013-06-22 04:01:00,
2013-06-22 00:06:00,66.5,59.1,30.11,East,86,0.0,0.0,77,0.00,,---,0.00,VWS V14.01,2013-06-22 04:06:00,
2013-06-22 00:11:00,66.5,59.1,30.11,East,86,0.0,0.0,77,0.00,,---,0.00,VWS V14.01,2013-06-22 04:11:00,
2013-06-22 00:16:00,66.4,59.3,30.10,East,86,0.0,0.0,78,0.00,,---,0.00,VWS V14.01,2013-06-22 04:16:00,
2013-06-22 00:21:00,66.2,59.2,30.10,East,86,0.0,0.0,78,0.00,,---,0.00,VWS V14.01,2013-06-22 04:21:00,
2013-06-22 00:26:00,66.3,59.6,30.10,East,86,0.0,0.0,79,0.00,,---,0.00,VWS V14.01,2013-06-22 04:26:00,
2013-06-22 00:31:00,66.3,59.2,30.10,East,86,0.0,0.0,78,0.00,,---,0.00,VWS V14.01,2013-06-22 04:31:00,
2013-06-22 00:36:00,66.2,59.9,30.10,East,86,0.0,0.0,80,0.00,,---,0.00,VWS V14.01,2013-06-22 04:36:00,
2013-06-22 00:41:00,66.3,59.2,30.10,East,86,0.0,0.0,78,0.00,,---,0.00,VWS V14.01,2013-06-22 04:41:00,
2013-06-22 00:46:00,66.3,57.8,30.10,East,86,0.0,0.0,74,0.00,,---,0.00,VWS V14.01,2013-06-22 04:46:00,
2013-06-22 00:51:00,67.0,57.3,30.10,SE,132,0.0,0.0,71,0.00,,---,0.00,VWS V14.01,2013-06-22 04:51:00,
2013-06-22 00:56:00,67.9,57.8,30.10,SE,144,0.0,0.0,70,0.00,,---,0.00,VWS V14.01,2013-06-22 04:56:00,
2013-06-22 01:01:00,68.2,57.2,30.10,ESE,104,0.0,0.0,68,0.00,,---,0.00,VWS V14.01,2013-06-22 05:01:00,
2013-06-22 01:06:00,68.6,57.2,30.09,SW,215,0.0,0.0,67,0.00,,---,0.00,VWS V14.01,2013-06-22 05:06:00,
2013-06-22 01:11:00,69.0,57.2,30.09,SE,139,0.0,0.0,66,0.00,,---,0.00,VWS V14.01,2013-06-22 05:11:00,
2013-06-22 01:16:00,69.4,57.6,30.10,SE,132,0.0,0.0,66,0.00,,---,0.00,VWS V14.01,2013-06-22 05:16:00,
2013-06-22 01:21:00,69.6,57.3,30.09,South,186,0.0,0.0,65,0.00,,---,0.00,VWS V14.01,2013-06-22 05:21:00,
2013-06-22 01:26:00,69.7,57.4,30.09,SSW,194,0.0,0.0,65,0.00,,---,0.00,VWS V14.01,2013-06-22 05:26:00,
2013-06-22 01:31:00,70.0,57.3,30.09,SSE,153,0.0,0.0,64,0.00,,---,0.00,VWS V14.01,2013-06-22 05:31:00,
2013-06-22 01:36:00,70.1,57.4,30.09,WSW,252,0.0,0.0,64,0.00,,---,0.00,VWS V14.01,2013-06-22 05:36:00,
2013-06-22 01:41:00,70.1,57.4,30.09,SE,129,0.0,0.0,64,0.00,,---,0.00,VWS V14.01,2013-06-22 05:41:00,
2013-06-22 01:46:00,70.1,57.4,30.09,SE,126,0.0,0.0,64,0.00,,---,0.00,VWS V14.01,2013-06-22 05:46:00,
2013-06-22 01:51:00,70.1,57.8,30.09,West,264,0.0,0.0,65,0.00,,---,0.00,VWS V14.01,2013-06-22 05:51:00,
2013-06-22 01:56:00,70.0,57.7,30.09,WSW,238,0.0,0.0,65,0.00,,---,0.00,VWS V14.01,2013-06-22 05:56:00,
2013-06-22 02:01:00,69.7,57.8,30.09,WSW,238,0.0,0.0,66,0.00,,---,0.00,VWS V14.01,2013-06-22 06:01:00,
2013-06-22 02:06:00,69.5,58.1,30.09,WSW,245,0.0,0.0,67,0.00,,---,0.00,VWS V14.01,2013-06-22 06:06:00,
2013-06-22 02:11:00,69.3,57.5,30.08,South,191,0.0,0.0,66,0.00,,---,0.00,VWS V14.01,2013-06-22 06:11:00,
2013-06-22 02:15:00,69.2,57.4,30.08,SSW,213,0.0,0.0,66,0.00,,---,0.00,VWS V14.01,2013-06-22 06:15:00,
2013-06-22 02:20:00,69.6,57.8,30.08,WSW,256,0.0,0.0,66,0.00,,---,0.00,VWS V14.01,2013-06-22 06:20:00,
2013-06-22 02:25:00,69.7,57.8,30.08,West,264,0.0,0.0,66,0.00,,---,0.00,VWS V14.01,2013-06-22 06:25:00,
2013-06-22 02:30:00,69.7,57.8,30.08,WSW,238,0.0,0.0,66,0.00,,---,0.00,VWS V14.01,2013-06-22 06:30:00,
2013-06-22 02:35:00,69.8,57.9,30.08,West,261,0.0,0.0,66,0.00,,---,0.00,VWS V14.01,2013-06-22 06:35:00,
2013-06-22 02:40:00,69.9,58.0,30.08,West,280,0.0,0.0,66,0.00,,---,0.00,VWS V14.01,2013-06-22 06:40:00,
2013-06-22 02:45:00,69.9,58.5,30.08,SSE,167,1.0,1.0,67,0.00,,---,0.00,VWS V14.01,2013-06-22 06:45:00,
2013-06-22 02:50:00,69.9,58.5,30.08,ESE,104,0.0,0.0,67,0.00,,---,0.00,VWS V14.01,2013-06-22 06:50:00,
2013-06-22 02:55:00,69.9,58.5,30.08,SSW,200,0.0,0.0,67,0.00,,---,0.00,VWS V14.01,2013-06-22 06:55:00,
2013-06-22 03:00:00,69.9,58.5,30.08,WSW,254,0.0,0.0,67,0.00,,---,0.00,VWS V14.01,2013-06-22 07:00:00,
2013-06-22 03:05:00,70.0,59.0,30.08,West,264,0.0,0.0,68,0.00,,---,0.00,VWS V14.01,2013-06-22 07:05:00,
2013-06-22 03:10:00,69.9,58.5,30.07,SW,230,0.0,0.0,67,0.00,,---,0.00,VWS V14.01,2013-06-22 07:10:00,
2013-06-22 03:15:00,69.7,59.1,30.07,SW,233,0.0,0.0,69,0.00,,---,0.00,VWS V14.01,2013-06-22 07:15:00,
2013-06-22 03:20:00,69.5,59.3,30.07,SW,233,0.0,0.0,70,0.00,,---,0.00,VWS V14.01,2013-06-22 07:20:00,
2013-06-22 03:25:00,69.5,59.3,30.06,ESE,107,0.0,0.0,70,0.00,,---,0.00,VWS V14.01,2013-06-22 07:25:00,
2013-06-22 03:30:00,69.7,59.1,30.06,SW,221,0.0,0.0,69,0.00,,---,0.00,VWS V14.01,2013-06-22 07:30:00,
2013-06-22 03:35:00,69.8,59.2,30.06,West,259,0.0,0.0,69,0.00,,---,0.00,VWS V14.01,2013-06-22 07:35:00,
2013-06-22 03:40:00,69.8,59.2,30.06,SSW,202,0.0,0.0,69,0.00,,---,0.00,VWS V14.01,2013-06-22 07:40:00,
2013-06-22 03:45:00,69.7,59.5,30.06,West,271,0.0,0.0,70,0.00,,---,0.00,VWS V14.01,2013-06-22 07:45:00,
2013-06-22 03:50:00,69.5,59.3,30.06,SSE,155,0.0,0.0,70,0.00,,---,0.00,VWS V14.01,2013-06-22 07:50:00,
2013-06-22 03:55:00,69.4,59.2,30.06,South,190,1.0,1.0,70,0.00,,---,0.00,VWS V14.01,2013-06-22 07:55:00,
2013-06-22 04:00:00,69.4,59.6,30.06,SW,233,0.0,0.0,71,0.00,,---,0.00,VWS V14.01,2013-06-22 08:00:00,
2013-06-22 04:05:00,69.1,59.3,30.06,SSE,148,0.0,0.0,71,0.00,,---,0.00,VWS V14.01,2013-06-22 08:05:00,
2013-06-22 04:10:00,69.1,60.1,30.05,SW,228,0.0,0.0,73,0.00,,---,0.00,VWS V14.01,2013-06-22 08:10:00,
2013-06-22 04:15:00,69.2,60.2,30.05,SSW,203,0.0,0.0,73,0.00,,---,0.00,VWS V14.01,2013-06-22 08:15:00,
2013-06-22 04:20:00,69.4,60.0,30.05,SW,221,0.0,0.0,72,0.00,,---,0.00,VWS V14.01,2013-06-22 08:20:00,
2013-06-22 04:25:00,69.6,60.2,30.05,SE,137,0.0,0.0,72,0.00,,---,0.00,VWS V14.01,2013-06-22 08:25:00,
2013-06-22 04:30:00,69.7,60.3,30.05,WSW,240,0.0,0.0,72,0.00,,---,0.00,VWS V14.01,2013-06-22 08:30:00,
2013-06-22 04:35:00,69.8,60.4,30.05,SSE,151,0.0,1.0,72,0.00,,---,0.00,VWS V14.01,2013-06-22 08:35:00,
2013-06-22 04:40:00,70.0,60.6,30.05,South,191,0.0,0.0,72,0.00,,---,0.00,VWS V14.01,2013-06-22 08:40:00,
2013-06-22 04:45:00,69.9,60.5,30.05,South,184,0.0,0.0,72,0.00,,---,0.00,VWS V14.01,2013-06-22 08:45:00,
2013-06-22 04:50:00,70.1,60.7,30.05,South,169,0.0,0.0,72,0.00,,---,0.00,VWS V14.01,2013-06-22 08:50:00,
2013-06-22 04:55:00,70.0,61.0,30.04,SW,233,0.0,0.0,73,0.00,,---,0.00,VWS V14.01,2013-06-22 08:55:00,
2013-06-22 05:00:00,70.0,60.6,30.04,SSW,213,0.0,0.0,72,0.00,,---,0.00,VWS V14.01,2013-06-22 09:00:00,
2013-06-22 05:05:00,69.9,60.9,30.04,WSW,252,0.0,0.0,73,0.00,,---,0.00,VWS V14.01,2013-06-22 09:05:00,
2013-06-22 05:10:00,69.7,60.7,30.04,South,181,1.0,1.0,73,0.00,,---,0.00,VWS V14.01,2013-06-22 09:10:00,
2013-06-22 05:15:00,69.6,61.0,30.03,SW,219,0.0,0.0,74,0.00,,---,0.00,VWS V14.01,2013-06-22 09:15:00,
2013-06-22 05:20:00,69.4,60.8,30.03,SE,143,0.0,0.0,74,0.00,,---,0.00,VWS V14.01,2013-06-22 09:20:00,
2013-06-22 05:25:00,69.2,61.0,30.03,North,359,0.0,1.0,75,0.00,,---,0.00,VWS V14.01,2013-06-22 09:25:00,
2013-06-22 05:30:00,69.1,60.8,30.03,SSE,150,0.0,0.0,75,0.00,,---,0.00,VWS V14.01,2013-06-22 09:30:00,
2013-06-22 05:35:00,68.9,60.7,30.04,West,264,1.0,1.0,75,0.00,,---,0.00,VWS V14.01,2013-06-22 09:35:00,
2013-06-22 05:40:00,68.9,61.0,30.05,WNW,290,0.0,0.0,76,0.00,,---,0.00,VWS V14.01,2013-06-22 09:40:00,
2013-06-22 05:45:00,68.6,61.1,30.05,WNW,290,0.0,0.0,77,0.00,,---,0.00,VWS V14.01,2013-06-22 09:45:00,
2013-06-22 05:50:00,68.3,60.8,30.05,WNW,290,0.0,0.0,77,0.00,,---,0.00,VWS V14.01,2013-06-22 09:50:00,
2013-06-22 05:55:00,68.1,61.0,30.05,WNW,289,0.0,0.0,78,0.00,,---,0.00,VWS V14.01,2013-06-22 09:55:00,
2013-06-22 06:00:00,67.8,61.1,30.06,WNW,289,0.0,0.0,79,0.00,,---,0.00,VWS V14.01,2013-06-22 10:00:00,
2013-06-22 06:05:00,67.4,60.7,30.06,WNW,290,0.0,0.0,79,0.00,,---,0.00,VWS V14.01,2013-06-22 10:05:00,
2013-06-22 06:10:00,67.0,61.0,30.06,WNW,289,0.0,0.0,81,0.00,,---,0.00,VWS V14.01,2013-06-22 10:10:00,
2013-06-22 06:15:00,66.7,61.0,30.06,WNW,290,0.0,0.0,82,0.00,,---,0.00,VWS V14.01,2013-06-22 10:15:00,
2013-06-22 06:20:00,66.5,60.8,30.06,WNW,290,0.0,0.0,82,0.00,,---,0.00,VWS V14.01,2013-06-22 10:20:00,
2013-06-22 06:25:00,66.4,61.1,30.06,WNW,290,0.0,0.0,83,0.00,,---,0.00,VWS V14.01,2013-06-22 10:25:00,
2013-06-22 06:30:00,66.4,61.1,30.06,WNW,290,0.0,0.0,83,0.00,,---,0.00,VWS V14.01,2013-06-22 10:30:00,
2013-06-22 06:35:00,66.6,61.3,30.06,ESE,103,0.0,0.0,83,0.00,,---,0.00,VWS V14.01,2013-06-22 10:35:00,
2013-06-22 06:40:00,67.0,61.7,30.06,SSW,200,0.0,1.0,83,0.00,,---,0.00,VWS V14.01,2013-06-22 10:40:00,
2013-06-22 06:45:00,67.3,62.0,30.06,SW,226,0.0,0.0,83,0.00,,---,0.00,VWS V14.01,2013-06-22 10:45:00,
2013-06-22 06:50:00,67.7,61.7,30.06,WSW,242,0.0,1.0,81,0.00,,---,0.00,VWS V14.01,2013-06-22 10:50:00,
2013-06-22 06:55:00,68.1,62.1,30.06,SSW,199,0.0,0.0,81,0.00,,---,0.00,VWS V14.01,2013-06-22 10:55:00,
2013-06-22 07:00:00,68.4,62.0,30.06,SSE,153,0.0,0.0,80,0.00,,---,0.00,VWS V14.01,2013-06-22 11:00:00,
2013-06-22 07:05:00,68.8,62.4,30.06,SW,236,0.0,0.0,80,0.00,,---,0.00,VWS V14.01,2013-06-22 11:05:00,
2013-06-22 07:10:00,69.2,62.4,30.06,West,269,0.0,0.0,79,0.00,,---,0.00,VWS V14.01,2013-06-22 11:10:00,
2013-06-22 07:15:00,69.5,62.7,30.06,West,273,0.0,0.0,79,0.00,,---,0.00,VWS V14.01,2013-06-22 11:15:00,
2013-06-22 07:20:00,69.8,63.0,30.06,West,269,0.0,0.0,79,0.00,,---,0.00,VWS V14.01,2013-06-22 11:20:00,
2013-06-22 07:25:00,70.2,63.0,30.06,SW,224,0.0,0.0,78,0.00,,---,0.00,VWS V14.01,2013-06-22 11:25:00,
2013-06-22 07:30:00,70.6,63.4,30.06,SW,231,0.0,0.0,78,0.00,,---,0.00,VWS V14.01,2013-06-22 11:30:00,
2013-06-22 07:35:00,70.9,63.7,30.06,SW,214,0.0,0.0,78,0.00,,---,0.00,VWS V14.01,2013-06-22 11:35:00,
2013-06-22 07:40:00,71.2,63.6,30.07,SSW,198,0.0,0.0,77,0.00,,---,0.00,VWS V14.01,2013-06-22 11:40:00,
2013-06-22 07:45:00,71.6,64.0,30.07,SSW,200,0.0,0.0,77,0.00,,---,0.00,VWS V14.01,2013-06-22 11:45:00,
2013-06-22 07:50:00,72.0,64.0,30.06,SE,134,0.0,1.0,76,0.00,,---,0.00,VWS V14.01,2013-06-22 11:50:00,
2013-06-22 07:55:00,72.4,64.0,30.07,NW,311,0.0,0.0,75,0.00,,---,0.00,VWS V14.01,2013-06-22 11:55:00,
2013-06-22 08:00:00,73.0,64.2,30.07,WSW,245,0.0,2.0,74,0.00,,---,0.00,VWS V14.01,2013-06-22 12:00:00,
2013-06-22 08:05:00,73.3,64.1,30.07,SE,131,0.0,1.0,73,0.00,,---,0.00,VWS V14.01,2013-06-22 12:05:00,
2013-06-22 08:10:00,73.4,64.6,30.07,SW,232,0.0,1.0,74,0.00,,---,0.00,VWS V14.01,2013-06-22 12:10:00,
2013-06-22 08:15:00,73.6,64.4,30.07,WSW,241,0.0,0.0,73,0.00,,---,0.00,VWS V14.01,2013-06-22 12:15:00,
2013-06-22 08:20:00,74.0,64.8,30.07,SSE,162,0.0,1.0,73,0.00,,---,0.00,VWS V14.01,2013-06-22 12:20:00,
2013-06-22 08:25:00,74.3,65.1,30.07,South,174,0.0,0.0,73,0.00,,---,0.00,VWS V14.01,2013-06-22 12:25:00,
2013-06-22 08:30:00,74.6,65.8,30.07,West,273,1.0,1.0,74,0.00,,---,0.00,VWS V14.01,2013-06-22 12:30:00,
2013-06-22 08:35:00,74.6,65.4,30.07,SE,139,0.0,0.0,73,0.00,,---,0.00,VWS V14.01,2013-06-22 12:35:00,
2013-06-22 08:40:00,74.9,65.7,30.07,East,84,0.0,1.0,73,0.00,,---,0.00,VWS V14.01,2013-06-22 12:40:00,
2013-06-22 08:45:00,75.2,65.6,30.07,SW,221,0.0,0.0,72,0.00,,---,0.00,VWS V14.01,2013-06-22 12:45:00,
2013-06-22 08:50:00,75.2,65.6,30.07,SSW,207,1.0,1.0,72,0.00,,---,0.00,VWS V14.01,2013-06-22 12:50:00,
2013-06-22 08:55:00,75.2,66.3,30.08,SE,128,0.0,0.0,74,0.00,,---,0.00,VWS V14.01,2013-06-22 12:55:00,
2013-06-22 09:00:00,75.6,66.7,30.08,SSW,212,0.0,1.0,74,0.00,,---,0.00,VWS V14.01,2013-06-22 13:00:00,
2013-06-22 09:05:00,75.9,66.2,30.08,WNW,297,0.0,0.0,72,0.00,,---,0.00,VWS V14.01,2013-06-22 13:05:00,
2013-06-22 09:10:00,76.2,66.5,30.08,WSW,248,0.0,1.0,72,0.00,,---,0.00,VWS V14.01,2013-06-22 13:10:00,
2013-06-22 09:15:00,76.9,67.2,30.08,West,275,1.0,1.0,72,0.00,,---,0.00,VWS V14.01,2013-06-22 13:15:00,
2013-06-22 09:20:00,77.5,66.9,30.08,SSE,155,0.0,1.0,70,0.00,,---,0.00,VWS V14.01,2013-06-22 13:20:00,
2013-06-22 09:25:00,78.2,67.6,30.08,SE,126,0.0,2.0,70,0.00,,---,0.00,VWS V14.01,2013-06-22 13:25:00,
2013-06-22 09:30:00,78.9,69.5,30.08,WSW,252,0.0,0.0,73,0.00,,---,0.00,VWS V14.01,2013-06-22 13:30:00,
2013-06-22 09:35:00,79.4,67.9,30.08,NW,308,0.0,1.0,68,0.00,,---,0.00,VWS V14.01,2013-06-22 13:35:00,
2013-06-22 09:40:00,79.7,67.8,30.09,WNW,284,0.0,0.0,67,0.00,,---,0.00,VWS V14.01,2013-06-22 13:40:00,
2013-06-22 09:45:00,80.1,69.0,30.09,WNW,283,0.0,1.0,69,0.00,,---,0.00,VWS V14.01,2013-06-22 13:45:00,
2013-06-22 09:50:00,80.0,68.5,30.09,West,276,0.0,0.0,68,0.00,,---,0.00,VWS V14.01,2013-06-22 13:50:00,
2013-06-22 09:55:00,79.8,68.7,30.09,WSW,255,2.0,2.0,69,0.00,,---,0.00,VWS V14.01,2013-06-22 13:55:00,
2013-06-22 10:00:00,79.7,68.6,30.09,SSW,195,0.0,1.0,69,0.00,,---,0.00,VWS V14.01,2013-06-22 14:00:00,
2013-06-22 10:05:00,79.7,68.6,30.08,WSW,240,0.0,1.0,69,0.00,,---,0.00,VWS V14.01,2013-06-22 14:05:00,
2013-06-22 10:10:00,79.8,69.6,30.08,WSW,237,1.0,1.0,71,0.00,,---,0.00,VWS V14.01,2013-06-22 14:10:00,
2013-06-22 10:15:00,79.9,69.2,30.08,NW,323,0.0,0.0,70,0.00,,---,0.00,VWS V14.01,2013-06-22 14:15:00,
2013-06-22 10:20:00,79.9,69.2,30.08,WSW,248,0.0,0.0,70,0.00,,---,0.00,VWS V14.01,2013-06-22 14:20:00,
2013-06-22 10:25:00,80.0,70.2,30.08,WNW,297,0.0,2.0,72,0.00,,---,0.00,VWS V14.01,2013-06-22 14:25:00,
2013-06-22 10:30:00,80.0,69.3,30.09,North,354,0.0,0.0,70,0.00,,---,0.00,VWS V14.01,2013-06-22 14:30:00,
2013-06-22 10:35:00,80.3,69.2,30.08,West,273,0.0,2.0,69,0.00,,---,0.00,VWS V14.01,2013-06-22 14:35:00,
2013-06-22 10:40:00,80.4,70.1,30.08,ESE,111,0.0,0.0,71,0.00,,---,0.00,VWS V14.01,2013-06-22 14:40:00,
2013-06-22 10:45:00,81.3,70.6,30.09,WSW,242,0.0,0.0,70,0.00,,---,0.00,VWS V14.01,2013-06-22 14:45:00,
2013-06-22 10:50:00,82.2,71.4,30.09,WSW,258,0.0,0.0,70,0.00,,---,0.00,VWS V14.01,2013-06-22 14:50:00,
2013-06-22 10:55:00,82.5,70.0,30.08,WNW,299,0.0,0.0,66,0.00,,---,0.00,VWS V14.01,2013-06-22 14:55:00,
2013-06-22 11:00:00,82.4,71.6,30.08,SSW,195,0.0,0.0,70,0.00,,---,0.00,VWS V14.01,2013-06-22 15:00:00,
2013-06-22 11:05:00,82.9,71.7,30.07,WSW,243,0.0,1.0,69,0.00,,---,0.00,VWS V14.01,2013-06-22 15:05:00,
2013-06-22 11:10:00,83.1,70.6,30.08,ESE,123,0.0,1.0,66,0.00,,---,0.00,VWS V14.01,2013-06-22 15:10:00,
2013-06-22 11:15:00,83.2,71.6,30.07,SW,226,0.0,1.0,68,0.00,,---,0.00,VWS V14.01,2013-06-22 15:15:00,
2013-06-22 11:20:00,83.6,71.5,30.08,WSW,240,1.0,1.0,67,0.00,,---,0.00,VWS V14.01,2013-06-22 15:20:00,
2013-06-22 11:25:00,83.7,71.1,30.08,SE,143,0.0,1.0,66,0.00,,---,0.00,VWS V14.01,2013-06-22 15:25:00,
2013-06-22 11:30:00,83.7,71.1,30.07,ESE,104,0.0,1.0,66,0.00,,---,0.00,VWS V14.01,2013-06-22 15:30:00,
2013-06-22 11:35:00,83.8,71.2,30.07,SW,217,0.0,1.0,66,0.00,,---,0.00,VWS V14.01,2013-06-22 15:35:00,
2013-06-22 11:40:00,84.1,71.1,30.07,SW,236,0.0,1.0,65,0.00,,---,0.00,VWS V14.01,2013-06-22 15:40:00,
2013-06-22 11:45:00,84.3,72.2,30.08,SW,231,1.0,1.0,67,0.00,,---,0.00,VWS V14.01,2013-06-22 15:45:00,
2013-06-22 11:50:00,84.6,70.6,30.08,North,8,0.0,3.0,63,0.00,,---,0.00,VWS V14.01,2013-06-22 15:50:00,
2013-06-22 11:55:00,84.3,70.8,30.08,SW,229,1.0,1.0,64,0.00,,---,0.00,VWS V14.01,2013-06-22 15:55:00,
2013-06-22 12:00:00,84.2,72.1,30.08,NNE,14,0.0,1.0,67,0.00,,---,0.00,VWS V14.01,2013-06-22 16:00:00,
2013-06-22 12:05:00,84.1,71.5,30.08,NW,318,0.0,1.0,66,0.00,,---,0.00,VWS V14.01,2013-06-22 16:05:00,
2013-06-22 12:10:00,84.3,71.3,30.08,WSW,240,0.0,1.0,65,0.00,,---,0.00,VWS V14.01,2013-06-22 16:10:00,
2013-06-22 12:15:00,84.1,71.1,30.08,NW,326,0.0,0.0,65,0.00,,---,0.00,VWS V14.01,2013-06-22 16:15:00,
2013-06-22 12:20:00,83.7,70.7,30.09,WSW,250,1.0,2.0,65,0.00,,---,0.00,VWS V14.01,2013-06-22 16:20:00,
2013-06-22 12:25:00,83.2,71.1,30.09,SW,233,0.0,1.0,67,0.00,,---,0.00,VWS V14.01,2013-06-22 16:25:00,
2013-06-22 12:30:00,83.1,71.4,30.09,WSW,248,0.0,1.0,68,0.00,,---,0.00,VWS V14.01,2013-06-22 16:30:00,
2013-06-22 12:35:00,83.4,71.7,30.09,WSW,250,0.0,1.0,68,0.00,,---,0.00,VWS V14.01,2013-06-22 16:35:00,
2013-06-22 12:40:00,83.3,70.8,30.09,WNW,288,1.0,1.0,66,0.00,,---,0.00,VWS V14.01,2013-06-22 16:40:00,
2013-06-22 12:45:00,82.9,71.3,30.09,SW,217,0.0,1.0,68,0.00,,---,0.00,VWS V14.01,2013-06-22 16:45:00,
2013-06-22 12:50:00,82.7,71.1,30.09,SW,232,0.0,1.0,68,0.00,,---,0.00,VWS V14.01,2013-06-22 16:50:00,
2013-06-22 12:55:00,82.8,71.2,30.09,NW,312,0.0,0.0,68,0.00,,---,0.00,VWS V14.01,2013-06-22 16:55:00,
2013-06-22 13:00:00,83.1,71.4,30.08,West,266,0.0,1.0,68,0.00,,---,0.00,VWS V14.01,2013-06-22 17:00:00,
2013-06-22 13:05:00,83.1,71.0,30.09,SSE,165,0.0,0.0,67,0.00,,---,0.00,VWS V14.01,2013-06-22 17:05:00,
2013-06-22 13:10:00,83.0,70.9,30.08,NNE,25,0.0,0.0,67,0.00,,---,0.00,VWS V14.01,2013-06-22 17:10:00,
2013-06-22 13:15:00,83.4,71.7,30.08,South,181,0.0,1.0,68,0.00,,---,0.00,VWS V14.01,2013-06-22 17:15:00,
2013-06-22 13:20:00,83.9,72.7,30.08,NW,323,0.0,1.0,69,0.00,,---,0.00,VWS V14.01,2013-06-22 17:20:00,
2013-06-22 13:25:00,84.2,72.1,30.08,NW,319,0.0,1.0,67,0.00,,---,0.00,VWS V14.01,2013-06-22 17:25:00,
2013-06-22 13:30:00,84.2,72.5,30.08,SW,231,0.0,1.0,68,0.00,,---,0.00,VWS V14.01,2013-06-22 17:30:00,
2013-06-22 13:35:00,85.0,71.9,30.07,SW,215,1.0,1.0,65,0.00,,---,0.00,VWS V14.01,2013-06-22 17:35:00,
2013-06-22 13:40:00,85.6,72.9,30.07,SW,231,0.0,1.0,66,0.00,,---,0.00,VWS V14.01,2013-06-22 17:40:00,
2013-06-22 13:45:00,85.8,72.2,30.07,SSW,201,0.0,0.0,64,0.00,,---,0.00,VWS V14.01,2013-06-22 17:45:00,
2013-06-22 13:50:00,86.4,73.2,30.06,WNW,283,0.0,1.0,65,0.00,,---,0.00,VWS V14.01,2013-06-22 17:50:00,
2013-06-22 13:55:00,86.6,73.0,30.06,WSW,239,0.0,0.0,64,0.00,,---,0.00,VWS V14.01,2013-06-22 17:55:00,
2013-06-22 14:00:00,86.7,72.6,30.06,WSW,249,0.0,0.0,63,0.00,,---,0.00,VWS V14.01,2013-06-22 18:00:00,
2013-06-22 14:05:00,86.5,72.4,30.06,West,266,0.0,1.0,63,0.00,,---,0.00,VWS V14.01,2013-06-22 18:05:00,
2013-06-22 14:10:00,86.4,73.7,30.06,SW,219,0.0,0.0,66,0.00,,---,0.00,VWS V14.01,2013-06-22 18:10:00,
2013-06-22 14:15:00,87.0,72.9,30.06,ENE,76,1.0,1.0,63,0.00,,---,0.00,VWS V14.01,2013-06-22 18:15:00,
2013-06-22 14:20:00,87.4,74.7,30.06,SE,136,0.0,1.0,66,0.00,,---,0.00,VWS V14.01,2013-06-22 18:20:00,
2013-06-22 14:25:00,87.5,73.8,30.06,SSW,203,1.0,1.0,64,0.00,,---,0.00,VWS V14.01,2013-06-22 18:25:00,
2013-06-22 14:30:00,87.1,73.9,30.06,North,352,0.0,0.0,65,0.00,,---,0.00,VWS V14.01,2013-06-22 18:30:00,
2013-06-22 14:35:00,86.5,73.3,30.06,NNW,339,0.0,1.0,65,0.00,,---,0.00,VWS V14.01,2013-06-22 18:35:00,
2013-06-22 14:40:00,86.2,73.5,30.06,West,271,0.0,0.0,66,0.00,,---,0.00,VWS V14.01,2013-06-22 18:40:00,
2013-06-22 14:45:00,86.0,74.2,30.06,WSW,252,0.0,1.0,68,0.00,,---,0.00,VWS V14.01,2013-06-22 18:45:00,
2013-06-22 14:50:00,85.9,72.8,30.06,ESE,120,0.0,0.0,65,0.00,,---,0.00,VWS V14.01,2013-06-22 18:50:00,
2013-06-22 14:55:00,86.0,74.2,30.05,NE,37,0.0,0.0,68,0.00,,---,0.00,VWS V14.01,2013-06-22 18:55:00,
2013-06-22 15:00:00,86.5,73.8,30.05,West,270,0.0,1.0,66,0.00,,---,0.00,VWS V14.01,2013-06-22 19:00:00,
2013-06-22 15:05:00,87.3,74.1,30.05,WSW,252,0.0,1.0,65,0.00,,---,0.00,VWS V14.01,2013-06-22 19:05:00,
2013-06-22 15:10:00,86.9,74.2,30.05,NW,309,0.0,0.0,66,0.00,,---,0.00,VWS V14.01,2013-06-22 19:10:00,
2013-06-22 15:15:00,87.0,75.2,30.05,SE,124,0.0,0.0,68,0.00,,---,0.00,VWS V14.01,2013-06-22 19:15:00,
2013-06-22 15:20:00,87.6,73.9,30.04,WSW,239,1.0,2.0,64,0.00,,---,0.00,VWS V14.01,2013-06-22 19:20:00,
2013-06-22 15:25:00,87.6,74.4,30.04,West,278,0.0,0.0,65,0.00,,---,0.00,VWS V14.01,2013-06-22 19:25:00,
2013-06-22 15:30:00,87.5,75.2,30.04,WNW,293,0.0,0.0,67,0.00,,---,0.00,VWS V14.01,2013-06-22 19:30:00,
2013-06-22 15:35:00,87.9,73.7,30.03,SSE,158,0.0,1.0,63,0.00,,---,0.00,VWS V14.01,2013-06-22 19:35:00,
2013-06-22 15:40:00,88.4,73.2,30.03,WNW,300,1.0,2.0,61,0.00,,---,0.00,VWS V14.01,2013-06-22 19:40:00,
2013-06-22 15:45:00,87.7,73.1,30.03,West,269,1.0,2.0,62,0.00,,---,0.00,VWS V14.01,2013-06-22 19:45:00,
2013-06-22 15:50:00,87.1,73.0,30.02,North,7,0.0,0.0,63,0.00,,---,0.00,VWS V14.01,2013-06-22 19:50:00,
2013-06-22 15:55:00,86.4,72.8,30.02,WNW,286,1.0,1.0,64,0.00,,---,0.00,VWS V14.01,2013-06-22 19:55:00,
2013-06-22 16:00:00,85.9,72.3,30.02,NNW,340,0.0,1.0,64,0.00,,---,0.00,VWS V14.01,2013-06-22 20:00:00,
2013-06-22 16:05:00,85.3,72.7,30.02,West,259,0.0,0.0,66,0.00,,---,0.00,VWS V14.01,2013-06-22 20:05:00,
2013-06-22 16:10:00,84.6,72.4,30.02,WSW,247,1.0,2.0,67,0.00,,---,0.00,VWS V14.01,2013-06-22 20:10:00,
2013-06-22 16:15:00,84.1,72.0,30.02,WNW,289,0.0,0.0,67,0.00,,---,0.00,VWS V14.01,2013-06-22 20:15:00,
2013-06-22 16:20:00,83.8,72.6,30.01,ENE,64,0.0,1.0,69,0.00,,---,0.00,VWS V14.01,2013-06-22 20:20:00,
2013-06-22 16:25:00,83.4,73.4,30.01,East,89,0.0,0.0,72,0.00,,---,0.00,VWS V14.01,2013-06-22 20:25:00,
2013-06-22 16:30:00,83.1,73.6,30.02,East,89,0.0,0.0,73,0.00,,---,0.00,VWS V14.01,2013-06-22 20:30:00,
2013-06-22 16:35:00,82.8,73.3,30.00,ENE,74,0.0,0.0,73,0.00,,---,0.00,VWS V14.01,2013-06-22 20:35:00,
2013-06-22 16:40:00,82.5,73.0,29.99,NNE,22,0.0,0.0,73,0.00,,---,0.00,VWS V14.01,2013-06-22 20:40:00,
2013-06-22 16:45:00,82.1,72.6,30.00,East,86,0.0,0.0,73,0.00,,---,0.00,VWS V14.01,2013-06-22 20:45:00,
2013-06-22 16:50:00,81.9,72.4,30.00,East,91,0.0,0.0,73,0.00,,---,0.00,VWS V14.01,2013-06-22 20:50:00,
2013-06-22 16:55:00,81.3,71.0,30.02,East,98,1.0,1.0,71,0.00,,---,0.00,VWS V14.01,2013-06-22 20:55:00,
2013-06-22 17:00:00,80.4,70.1,30.03,ENE,73,3.0,3.0,71,0.00,,---,0.00,VWS V14.01,2013-06-22 21:00:00,
2013-06-22 17:05:00,78.8,69.8,30.03,NE,49,1.0,2.0,74,0.00,,---,0.00,VWS V14.01,2013-06-22 21:05:00,
2013-06-22 17:10:00,77.9,70.1,30.02,ESE,120,1.0,1.0,77,0.00,,---,0.00,VWS V14.01,2013-06-22 21:10:00,
2013-06-22 17:15:00,77.3,69.5,30.02,ENE,58,2.0,2.0,77,0.00,,---,0.00,VWS V14.01,2013-06-22 21:15:00,
2013-06-22 17:20:00,76.8,68.7,30.02,NE,46,0.0,2.0,76,0.00,,---,0.00,VWS V14.01,2013-06-22 21:20:00,
2013-06-22 17:25:00,76.5,68.4,30.02,East,101,0.0,1.0,76,0.00,,---,0.00,VWS V14.01,2013-06-22 21:25:00,
2013-06-22 17:30:00,76.2,68.8,30.03,SSW,212,2.0,3.0,78,0.00,,---,0.00,VWS V14.01,2013-06-22 21:30:00,
2013-06-22 17:35:00,75.5,69.3,30.04,NNW,330,1.0,1.0,81,0.00,,---,0.00,VWS V14.01,2013-06-22 21:35:00,
2013-06-22 17:40:00,75.1,69.2,30.05,SSE,149,1.0,3.0,82,0.00,,---,0.00,VWS V14.01,2013-06-22 21:40:00,
2013-06-22 17:45:00,74.6,68.8,30.05,South,191,2.0,3.0,82,0.00,,---,0.00,VWS V14.01,2013-06-22 21:45:00,
2013-06-22 17:50:00,74.2,68.7,30.05,South,179,0.0,1.0,83,0.00,,---,0.00,VWS V14.01,2013-06-22 21:50:00,
2013-06-22 17:55:00,73.9,68.8,30.04,ESE,109,0.0,1.0,84,0.00,,---,0.00,VWS V14.01,2013-06-22 21:55:00,
2013-06-22 18:00:00,73.7,68.6,30.04,East,81,0.0,0.0,84,0.00,,---,0.00,VWS V14.01,2013-06-22 22:00:00,
2013-06-22 18:05:00,73.6,68.8,30.04,ESE,117,0.0,1.0,85,0.00,,---,0.00,VWS V14.01,2013-06-22 22:05:00,
2013-06-22 18:10:00,73.6,68.5,30.04,SW,236,0.0,0.0,84,0.00,,---,0.00,VWS V14.01,2013-06-22 22:10:00,
2013-06-22 18:15:00,73.6,68.1,30.03,SSW,201,0.0,1.0,83,0.00,,---,0.00,VWS V14.01,2013-06-22 22:15:00,
2013-06-22 18:20:00,73.6,68.1,30.04,SW,228,0.0,0.0,83,0.00,,---,0.00,VWS V14.01,2013-06-22 22:20:00,
2013-06-22 18:25:00,73.5,68.0,30.03,East,86,0.0,0.0,83,0.00,,---,0.00,VWS V14.01,2013-06-22 22:25:00,
2013-06-22 18:30:00,73.4,67.9,30.02,South,173,0.0,0.0,83,0.00,,---,0.00,VWS V14.01,2013-06-22 22:30:00,
2013-06-22 18:35:00,73.3,67.8,30.02,SW,217,0.0,0.0,83,0.00,,---,0.00,VWS V14.01,2013-06-22 22:35:00,
2013-06-22 18:40:00,73.2,67.7,30.02,WSW,255,0.0,0.0,83,0.00,,---,0.00,VWS V14.01,2013-06-22 22:40:00,
2013-06-22 18:45:00,73.1,67.6,30.02,WSW,255,0.0,0.0,83,0.00,,---,0.00,VWS V14.01,2013-06-22 22:45:00,
2013-06-22 18:50:00,73.1,68.0,30.02,WSW,255,0.0,0.0,84,0.00,,---,0.00,VWS V14.01,2013-06-22 22:50:00,
2013-06-22 18:55:00,72.9,67.8,30.01,WSW,255,0.0,0.0,84,0.00,,---,0.00,VWS V14.01,2013-06-22 22:55:00,
2013-06-22 19:00:00,72.8,67.7,30.01,SSW,210,0.0,0.0,84,0.00,,---,0.00,VWS V14.01,2013-06-22 23:00:00,
2013-06-22 19:05:00,72.8,67.7,30.02,SE,145,0.0,0.0,84,0.00,,---,0.00,VWS V14.01,2013-06-22 23:05:00,
2013-06-22 19:10:00,72.8,67.7,30.02,SSW,210,0.0,0.0,84,0.00,,---,0.00,VWS V14.01,2013-06-22 23:10:00,
2013-06-22 19:15:00,72.8,67.3,30.02,SSE,168,0.0,0.0,83,0.00,,---,0.00,VWS V14.01,2013-06-22 23:15:00,
2013-06-22 19:20:00,72.7,67.2,30.02,WNW,286,0.0,0.0,83,0.00,,---,0.00,VWS V14.01,2013-06-22 23:20:00,
2013-06-22 19:25:00,72.6,67.2,30.02,West,278,1.0,1.0,83,0.00,,---,0.00,VWS V14.01,2013-06-22 23:25:00,
2013-06-22 19:30:00,72.4,67.3,30.01,West,270,0.0,0.0,84,0.00,,---,0.00,VWS V14.01,2013-06-22 23:30:00,
2013-06-22 19:35:00,72.3,67.2,30.02,SSW,208,0.0,0.0,84,0.00,,---,0.00,VWS V14.01,2013-06-22 23:35:00,
2013-06-22 19:40:00,72.3,67.2,30.01,West,264,0.0,0.0,84,0.00,,---,0.00,VWS V14.01,2013-06-22 23:40:00,
2013-06-22 19:45:00,72.2,67.1,30.01,SSE,160,0.0,0.0,84,0.00,,---,0.00,VWS V14.01,2013-06-22 23:45:00,
2013-06-22 19:50:00,72.2,67.4,30.01,SW,224,0.0,0.0,85,0.00,,---,0.00,VWS V14.01,2013-06-22 23:50:00,
2013-06-22 19:55:00,72.2,67.1,30.01,South,173,0.0,0.0,84,0.00,,---,0.00,VWS V14.01,2013-06-22 23:55:00,
2013-06-22 20:00:00,72.2,67.1,30.01,West,264,0.0,0.0,84,0.00,,---,0.00,VWS V14.01,2013-06-23 00:00:00,
2013-06-22 20:05:00,72.2,67.1,30.01,West,264,0.0,0.0,84,0.00,,---,0.00,VWS V14.01,2013-06-23 00:05:00,
2013-06-22 20:10:00,72.1,67.0,30.01,West,264,0.0,0.0,84,0.00,,---,0.00,VWS V14.01,2013-06-23 00:10:00,
2013-06-22 20:15:00,72.2,67.1,30.01,WNW,282,0.0,0.0,84,0.00,,---,0.00,VWS V14.01,2013-06-23 00:15:00,
2013-06-22 20:20:00,72.1,67.0,30.01,WSW,238,0.0,0.0,84,0.00,,---,0.00,VWS V14.01,2013-06-23 00:20:00,
2013-06-22 20:25:00,72.2,67.1,30.02,WSW,255,0.0,0.0,84,0.00,,---,0.00,VWS V14.01,2013-06-23 00:25:00,
2013-06-22 20:30:00,72.2,67.1,30.02,WSW,256,1.0,1.0,84,0.00,,---,0.00,VWS V14.01,2013-06-23 00:30:00,
2013-06-22 20:35:00,72.2,67.4,30.01,WSW,256,0.0,0.0,85,0.00,,---,0.00,VWS V14.01,2013-06-23 00:35:00,
2013-06-22 20:40:00,72.0,67.2,30.01,WSW,256,0.0,0.0,85,0.00,,---,0.00,VWS V14.01,2013-06-23 00:40:00,
2013-06-22 20:45:00,71.9,67.5,30.02,WSW,256,0.0,0.0,86,0.00,,---,0.00,VWS V14.01,2013-06-23 00:45:00,
2013-06-22 20:50:00,71.7,67.3,30.02,WSW,256,0.0,0.0,86,0.00,,---,0.00,VWS V14.01,2013-06-23 00:50:00,
2013-06-22 20:55:00,71.7,67.3,30.03,WSW,240,0.0,0.0,86,0.00,,---,0.00,VWS V14.01,2013-06-23 00:55:00,
2013-06-22 21:00:00,71.6,67.2,30.03,WSW,240,0.0,0.0,86,0.00,,---,0.00,VWS V14.01,2013-06-23 01:00:00,
2013-06-22 21:05:00,71.6,67.2,30.03,WSW,252,0.0,0.0,86,0.00,,---,0.00,VWS V14.01,2013-06-23 01:05:00,
2013-06-22 21:10:00,71.7,67.3,30.03,WSW,251,0.0,0.0,86,0.00,,---,0.00,VWS V14.01,2013-06-23 01:10:00,
2013-06-22 21:15:00,71.8,67.1,30.03,West,269,0.0,0.0,85,0.00,,---,0.00,VWS V14.01,2013-06-23 01:15:00,
2013-06-22 21:20:00,71.9,67.2,30.04,West,269,0.0,0.0,85,0.00,,---,0.00,VWS V14.01,2013-06-23 01:20:00,
2013-06-22 21:25:00,72.0,66.9,30.03,South,182,1.0,1.0,84,0.00,,---,0.00,VWS V14.01,2013-06-23 01:25:00,
2013-06-22 21:30:00,72.2,67.4,30.03,SW,219,0.0,0.0,85,0.00,,---,0.00,VWS V14.01,2013-06-23 01:30:00,
2013-06-22 21:35:00,72.1,67.0,30.03,SW,219,0.0,0.0,84,0.00,,---,0.00,VWS V14.01,2013-06-23 01:35:00,
2013-06-22 21:40:00,72.1,67.0,30.03,SW,221,0.0,0.0,84,0.00,,---,0.00,VWS V14.01,2013-06-23 01:40:00,
2013-06-22 21:45:00,72.1,67.0,30.03,SSE,155,0.0,1.0,84,0.00,,---,0.00,VWS V14.01,2013-06-23 01:45:00,
2013-06-22 21:50:00,72.1,67.3,30.03,SW,222,0.0,0.0,85,0.00,,---,0.00,VWS V14.01,2013-06-23 01:50:00,
2013-06-22 21:55:00,72.1,67.3,30.04,West,273,0.0,0.0,85,0.00,,---,0.00,VWS V14.01,2013-06-23 01:55:00,
2013-06-22 22:00:00,72.1,67.3,30.04,West,271,0.0,0.0,85,0.00,,---,0.00,VWS V14.01,2013-06-23 02:00:00,
2013-06-22 22:05:00,72.2,67.4,30.05,West,279,0.0,0.0,85,0.00,,---,0.00,VWS V14.01,2013-06-23 02:05:00,
2013-06-22 22:10:00,72.2,67.4,30.05,SW,231,1.0,2.0,85,0.00,,---,0.00,VWS V14.01,2013-06-23 02:10:00,
2013-06-22 22:15:00,72.4,67.6,30.05,West,269,0.0,0.0,85,0.00,,---,0.00,VWS V14.01,2013-06-23 02:15:00,
2013-06-22 22:20:00,72.5,67.7,30.06,WSW,245,0.0,0.0,85,0.00,,---,0.00,VWS V14.01,2013-06-23 02:20:00,
2013-06-22 22:25:00,72.6,67.8,30.06,West,276,0.0,0.0,85,0.00,,---,0.00,VWS V14.01,2013-06-23 02:25:00,
2013-06-22 22:30:00,72.6,68.2,30.06,WSW,247,0.0,0.0,86,0.00,,---,0.00,VWS V14.01,2013-06-23 02:30:00,
2013-06-22 22:35:00,72.6,68.2,30.06,East,101,0.0,0.0,86,0.00,,---,0.00,VWS V14.01,2013-06-23 02:35:00,
2013-06-22 22:40:00,72.6,68.2,30.06,SSW,212,0.0,0.0,86,0.00,,---,0.00,VWS V14.01,2013-06-23 02:40:00,
2013-06-22 22:45:00,72.6,68.2,30.06,SSW,198,0.0,0.0,86,0.00,,---,0.00,VWS V14.01,2013-06-23 02:45:00,
2013-06-22 22:50:00,72.6,68.5,30.06,SSE,147,0.0,0.0,87,0.00,,---,0.00,VWS V14.01,2013-06-23 02:50:00,
2013-06-22 22:55:00,72.6,68.5,30.06,SW,223,0.0,0.0,87,0.00,,---,0.00,VWS V14.01,2013-06-23 02:55:00,
2013-06-22 23:00:00,72.5,68.4,30.06,SW,222,0.0,0.0,87,0.00,,---,0.00,VWS V14.01,2013-06-23 03:00:00,
2013-06-22 23:05:00,72.4,68.3,30.06,SW,232,0.0,1.0,87,0.00,,---,0.00,VWS V14.01,2013-06-23 03:05:00,
2013-06-22 23:10:00,72.3,68.6,30.05,SW,232,0.0,0.0,88,0.00,,---,0.00,VWS V14.01,2013-06-23 03:10:00,
2013-06-22 23:15:00,72.2,68.4,30.05,SW,232,0.0,0.0,88,0.00,,---,0.00,VWS V14.01,2013-06-23 03:15:00,
2013-06-22 23:20:00,72.0,68.6,30.05,SW,224,0.0,0.0,89,0.00,,---,0.00,VWS V14.01,2013-06-23 03:20:00,
2013-06-22 23:25:00,71.8,68.4,30.05,WSW,257,0.0,0.0,89,0.00,,---,0.00,VWS V14.01,2013-06-23 03:25:00,
2013-06-22 23:30:00,71.7,68.3,30.05,WSW,257,0.0,0.0,89,0.00,,---,0.00,VWS V14.01,2013-06-23 03:30:00,
2013-06-22 23:35:00,71.5,68.4,30.05,West,271,0.0,0.0,90,0.00,,---,0.00,VWS V14.01,2013-06-23 03:35:00,
2013-06-22 23:40:00,71.4,68.3,30.05,West,271,0.0,0.0,90,0.00,,---,0.00,VWS V14.01,2013-06-23 03:40:00,
2013-06-22 23:45:00,71.1,68.0,30.05,West,271,0.0,0.0,90,0.00,,---,0.00,VWS V14.01,2013-06-23 03:45:00,
2013-06-22 23:50:00,70.8,68.1,30.04,West,271,0.0,0.0,91,0.00,,---,0.00,VWS V14.01,2013-06-23 03:50:00,
2013-06-22 23:55:00,70.5,67.8,30.05,West,271,0.0,0.0,91,0.00,,---,0.00,VWS V14.01,2013-06-23 03:55:00,